Wind_Speed
19 21 20 20 22 22 22 21 21 20 18 19 20 20 20 19 19 21 23 21 19 8 15 14 9 9 5 4 1 7 6 5 4 3 1 0 1 3 1 3 2 5 4 3 3 4 7 15 11 3 4 17 15 21
23 23 23 23 23 22 22 24 23 21 21 21 22 22 23 23 23 23 25 23 22 17 11 11 14 21 28 24 14 4 3 2 4 3 2 2 2 3 0 2 1 1 1 2 5 2 5 10 10 13 11 20 10 22
26 23 22 21 23 24 25 24 22 21 23 23 23 23 24 26 26 28 32 25 20 17 19 25 27 25 25 23 12 6 6 3 5 12 2 1 3 1 2 3 2 2 3 1 1 8 9 12 19 23 21 24 19 16
25 24 23 24 25 24 21 20 22 24 24 25 25 28 31 31 31 31 34 34 26 6 4 10 8 13 12 13 19 24 24 11 13 8 3 2 2 0 2 4 1 3 2 3 1 9 14 12 13 18 18 20 18 15
23 23 23 23 22 21 21 22 23 20 20 23 24 23 27 30 29 31 38 34 29 18 3 6 13 14 13 11 13 18 24 24 19 3 2 2 3 3 2 1 3 5 3 2 2 6 9 8 8 10 17 17 14 12
22 22 23 23 23 23 22 20 20 20 20 21 18 16 19 18 22 33 7 25 25 24 3 3 5 6 4 10 18 18 17 18 13 2 3 5 3 3 3 2 5 8 11 2 3 14 14 13 10 9 13 12 11 9
25 24 25 22 21 21 19 19 17 16 19 14 15 15 12 22 27 18 8 9 29 21 3 3 4 3 9 7 13 15 18 12 9 6 5 4 4 4 1 1 5 11 14 10 7 2 6 8 9 9 9 10 8 9
28 27 25 21 20 21 18 18 14 12 15 14 14 17 17 30 22 11 6 10 31 18 5 2 4 2 4 5 4 7 8 9 8 5 2 3 4 0 2 5 6 5 7 13 12 8 11 11 6 8 7 5 6 8
26 25 22 22 23 23 21 16 14 13 16 22 25 33 37 20 7 8 12 22 25 6 5 4 2 3 1 5 5 6 6 2 5 3 3 3 1 2 4 7 7 9 5 4 5 7 8 6 6 5 5 6 6 6
24 25 27 24 22 23 22 17 17 25 32 35 39 14 7 12 18 29 14 9 10 6 5 3 5 2 3 6 6 7 7 4 4 5 6 2 2 8 7 6 4 4 5 1 1 3 3 4 3 5 5 5 6 8
25 23 20 17 21 24 22 24 31 37 37 33 7 4 21 18 6 2 4 4 6 3 6 6 14 4 8 2 2 7 3 2 3 3 3 2 2 3 3 4 4 5 5 4 1 0 1 1 3 4 6 7 7 7
18 20 22 22 24 19 28 38 44 44 24 14 14 26 23 6 4 3 4 3 4 4 5 4 5 10 4 4 2 2 2 1 2 7 2 2 2 8 4 3 2 2 2 2 3 4 4 3 2 2 5 6 7 7
24 26 21 24 27 34 43 46 44 31 29 30 14 7 6 5 4 4 5 3 3 4 5 5 2 3 2 1 1 1 3 2 4 3 2 1 11 9 7 4 2 1 1 2 2 2 3 4 6 7 11 12 11 11
25 28 30 30 38 46 47 46 36 36 12 5 5 6 3 3 3 4 3 2 2 1 7 11 4 2 2 3 1 1 2 2 2 2 4 2 10 8 6 4 4 5 6 8 8 8 10 11 13 13 13 12 10 9
26 35 38 38 47 49 46 41 33 24 4 3 3 2 1 0 2 1 3 4 3 4 7 7 4 3 2 1 0 2 2 1 2 3 2 12 10 7 7 7 9 11 13 14 14 14 15 14 14 14 12 10 8 7
35 42 39 46 51 47 40 30 25 5 4 3 5 3 3 3 3 4 5 4 3 5 5 2 2 3 2 2 3 1 1 3 3 2 13 14 11 10 10 10 12 13 14 15 15 14 14 13 12 11 9 7 6 4
39 43 53 52 47 39 32 20 4 6 5 4 3 8 9 8 5 4 3 3 3 2 2 3 4 2 1 3 1 1 3 3 10 15 13 11 12 12 12 13 14 14 14 14 14 13 12 10 9 7 6 7 6 6
52 51 50 48 38 30 20 6 6 5 5 6 4 4 11 7 3 7 4 3 2 3 3 2 3 4 3 4 2 3 5 14 14 14 13 13 12 13 13 15 15 14 13 12 10 9 8 7 5 3 2 2 2 2
48 51 44 31 28 17 5 4 4 4 5 5 7 8 9 9 12 7 5 9 10 9 8 4 4 1 2 2 3 16 20 19 19 16 15 14 14 14 13 12 11 11 8 6 5 4 3 2 1 2 5 5 5 5
33 30 24 17 9 5 6 5 5 6 3 3 6 6 6 6 4 8 9 9 8 5 6 3 1 2 0 7 16 18 15 17 21 20 16 13 10 10 10 9 9 8 5 4 3 2 1 1 3 4 3 6 6 7
28 23 18 15 13 8 6 5 5 5 7 6 10 4 5 6 5 7 8 7 7 5 3 4 8 10 11 11 13 13 15 15 16 16 18 16 11 9 9 8 7 6 4 1 2 2 3 5 4 4 4 4 5 5
19 19 16 9 7 5 6 5 9 8 4 7 5 4 4 3 3 4 4 9 4 4 4 14 14 13 14 13 13 12 13 12 12 14 13 12 11 9 7 5 4 4 4 3 4 5 6 6 6 6 4 4 3 3
14 8 5 4 5 4 5 6 3 3 3 5 4 3 2 2 3 3 5 4 4 10 15 14 13 13 17 17 15 14 11 11 13 12 11 9 8 6 4 3 3 2 3 3 3 5 5 5 5 5 5 4 6 6
7 4 3 3 4 3 6 3 4 5 5 2 2 2 1 4 5 4 2 2 9 15 15 18 18 20 18 16 16 13 11 10 12 11 8 6 5 5 3 3 2 3 4 4 3 4 5 5 3 4 6 7 6 7
3 6 3 3 4 5 3 2 2 3 2 2 3 1 1 5 2 2 3 6 16 18 19 18 16 14 17 17 15 12 10 5 7 8 8 4 4 4 3 1 1 3 3 4 5 7 8 7 6 7 7 9 9 9
5 6 3 0 1 4 3 4 3 4 3 2 2 4 4 3 3 3 3 16 20 23 21 19 18 16 14 10 13 11 9 6 3 4 5 5 4 4 5 5 5 6 7 7 7 7 8 8 10 10 10 10 9 9
3 2 3 5 1 5 5 6 5 4 3 4 3 2 3 3 2 1 11 16 20 23 18 13 10 7 10 14 11 9 8 6 4 4 5 6 6 6 6 6 8 9 9 9 9 9 9 10 12 12 12 12 12 11
4 4 3 5 8 8 4 3 3 2 1 2 3 3 4 6 3 4 10 19 18 18 18 14 12 8 10 10 9 8 9 7 5 4 3 2 2 2 2 4 6 7 8 8 8 8 9 9 9 9 10 10 11 12
4 3 5 5 6 7 7 2 1 2 2 2 3 2 3 3 3 12 20 21 18 17 18 17 16 12 9 8 8 7 6 4 3 3 3 3 3 2 4 5 5 5 6 6 7 8 8 7 8 8 9 9 10 11
3 4 5 4 4 3 5 5 3 4 5 8 8 12 12 13 16 19 18 17 16 15 12 11 9 8 8 7 6 6 5 5 4 4 4 5 6 7 6 6 5 5 5 6 6 6 8 8 9 9 9 10 11 12
4 4 5 6 5 9 17 14 12 10 8 12 22 25 18 13 15 12 12 12 11 12 12 12 11 9 6 5 4 3 2 3 3 4 4 5 5 5 5 4 4 4 5 5 5 6 6 7 9 9 10 11 12 13
3 3 6 4 4 13 8 6 8 12 10 13 10 15 12 5 4 6 11 10 9 10 9 7 6 7 7 6 4 4 2 2 2 3 3 3 2 2 3 3 4 5 6 6 7 7 7 8 9 11 12 12 13 15
11 14 14 9 6 7 7 6 4 4 4 6 4 2 3 3 4 7 13 12 7 4 6 7 7 6 5 5 4 2 1 2 2 2 1 1 1 2 3 3 4 5 7 7 8 9 10 10 11 12 13 14 16 17
Wind_Direction
251 225 227 236 243 248 255 254 258 251 250 250 248 245 242 237 230 230 234 231 221 236 261 258 263 232 225 235 224 324 340 7 305 7 320 202 185 247 277 239 190 180 168 193 168 211 254 353 319 228 131 52 36 69
227 218 237 239 249 248 248 255 257 251 254 252 250 245 242 240 234 230 227 232 227 233 255 264 259 253 251 259 266 294 299 214 292 308 12 310 313 349 307 264 289 27 229 240 184 195 51 26 48 67 109 103 80 83
219 235 242 243 242 249 255 254 250 255 256 251 248 242 241 241 235 227 224 221 208 231 264 270 262 269 261 254 244 232 263 190 279 307 295 295 272 270 284 261 302 243 153 205 238 139 96 59 64 76 82 69 75 102
233 236 242 244 250 255 247 251 257 260 255 254 251 248 245 237 233 229 218 218 204 184 232 273 272 258 263 254 233 233 241 261 284 286 278 294 282 151 265 295 336 342 332 9 4 122 100 71 72 88 77 80 83 93
234 242 245 247 253 247 249 258 262 255 254 260 251 256 251 240 239 220 219 217 199 190 224 279 295 279 253 233 226 229 238 242 256 254 263 266 259 305 221 243 42 358 355 347 28 13 78 72 55 90 97 91 91 88
235 238 241 249 250 248 255 256 250 256 249 249 243 270 245 257 203 194 148 191 196 207 295 310 301 284 299 219 218 234 229 220 224 277 286 269 254 227 296 76 20 22 8 180 110 82 87 100 90 80 88 88 85 89
234 240 249 252 246 248 249 243 245 248 247 242 241 250 223 196 182 152 159 175 187 187 200 258 276 250 177 227 228 225 221 211 210 222 228 258 272 199 302 85 23 38 47 63 44 26 70 59 95 81 73 67 66 77
243 245 249 246 245 251 238 233 224 244 246 212 175 172 155 147 135 131 128 154 169 166 201 229 257 282 197 190 159 153 152 182 206 221 225 246 283 301 99 55 27 25 38 46 48 80 114 124 108 68 54 46 44 49
243 244 242 243 241 236 222 209 220 181 157 144 144 147 140 128 107 126 120 151 163 179 189 201 203 240 245 212 152 152 164 165 204 206 212 183 49 52 47 87 48 29 28 21 74 98 110 90 80 55 26 23 50 75
242 243 242 233 231 215 192 194 199 155 145 150 144 125 109 145 127 117 122 141 184 229 237 236 213 227 193 233 172 160 165 206 192 211 165 86 88 90 79 82 62 26 6 248 177 79 67 81 70 64 79 103 100 99
240 237 209 192 191 193 192 182 157 152 152 136 127 90 137 137 130 163 138 176 185 213 221 230 206 177 220 246 156 189 172 143 189 197 209 126 108 98 114 75 39 21 25 53 57 263 221 175 122 106 101 112 123 119
205 199 183 190 189 181 177 155 158 154 149 146 129 130 131 166 171 180 185 186 215 227 201 195 214 196 191 211 227 155 162 121 178 148 108 97 121 133 120 71 54 22 4 39 84 100 105 113 99 119 136 140 137 126
204 205 188 173 169 173 156 156 155 145 138 121 123 150 155 172 183 201 177 195 206 204 191 161 92 107 160 227 70 103 204 199 130 44 89 78 129 131 132 117 76 76 145 170 161 126 117 119 117 113 112 108 115 118
185 174 170 162 166 158 156 156 150 147 137 127 139 136 209 197 220 190 172 190 103 354 152 130 98 133 69 38 358 146 267 50 82 121 203 145 140 153 154 166 162 142 148 149 141 136 128 124 120 117 116 115 120 117
162 168 161 160 159 154 154 152 155 167 80 88 85 133 194 12 50 163 136 113 83 111 124 113 92 86 75 88 143 81 38 51 168 199 195 154 160 158 149 140 133 126 126 125 126 127 125 123 119 112 107 106 105 101
140 145 155 155 150 150 154 152 160 128 88 76 53 84 91 83 5 50 77 86 83 119 106 84 113 67 92 117 61 217 91 224 235 194 143 148 144 142 135 131 127 124 122 119 117 115 114 113 112 112 113 111 105 91
129 133 147 147 150 156 156 156 121 57 66 61 43 66 84 76 63 56 56 51 88 51 89 50 68 152 65 59 92 44 179 221 141 142 144 142 144 142 137 133 129 126 122 118 115 113 110 105 101 105 110 109 101 86
128 144 150 151 146 141 135 115 68 70 72 67 87 65 73 78 81 54 37 78 94 91 73 91 102 64 140 152 253 217 114 128 135 134 133 134 136 133 132 128 127 125 122 119 115 112 107 106 106 119 125 136 143 67
144 149 150 136 132 134 96 65 47 92 75 88 94 86 84 82 62 66 77 87 97 107 107 58 67 97 217 173 150 138 142 140 134 132 128 130 132 132 131 131 132 135 136 138 157 178 188 189 236 264 264 265 275 277
136 128 133 130 127 101 94 81 90 95 115 109 108 88 75 67 50 60 86 85 89 59 53 51 167 343 280 147 156 151 150 148 140 133 133 136 136 137 137 141 147 157 166 158 154 164 195 299 337 331 301 245 257 271
143 133 139 136 92 87 97 115 81 97 117 107 119 95 82 75 47 38 34 33 61 41 58 86 117 108 114 124 138 142 145 152 154 152 149 145 145 159 155 158 161 160 163 192 274 243 272 303 313 321 322 284 262 268
149 153 129 86 73 72 76 70 114 113 85 133 114 95 94 76 55 38 46 50 59 44 124 135 130 130 128 130 135 143 145 154 148 147 151 153 152 161 166 168 189 217 240 261 280 295 303 307 311 310 301 300 294 334
106 104 76 82 93 80 131 133 102 102 113 162 115 80 55 85 98 68 74 65 81 132 139 138 136 138 131 132 136 136 146 157 156 159 158 158 158 163 184 203 217 251 250 252 284 310 312 314 304 297 295 291 283 278
110 82 72 82 87 126 148 142 113 103 106 107 92 110 155 120 129 69 81 80 146 150 148 143 142 134 133 139 142 143 147 158 152 151 156 176 180 173 195 215 238 266 275 283 300 312 325 342 330 309 292 294 295 284
99 18 58 45 116 106 89 87 79 77 105 134 93 27 219 151 82 78 163 158 163 163 161 161 160 157 151 149 145 145 143 160 167 161 159 172 206 183 181 206 304 320 312 310 299 286 295 297 293 300 304 300 291 283
80 21 48 47 37 112 161 125 151 155 123 98 196 126 139 92 82 211 196 175 175 175 176 172 167 161 162 164 156 152 153 159 181 203 203 209 232 257 264 279 288 290 303 301 299 296 289 284 286 295 303 307 301 295
90 335 62 39 112 104 79 72 92 94 103 156 182 86 81 89 205 232 146 162 171 172 168 168 173 178 172 165 170 174 178 184 193 221 230 231 247 256 257 260 267 282 295 305 309 310 300 292 290 292 295 299 299 297
84 43 105 12 65 45 106 61 58 83 182 24 95 65 127 167 195 148 160 166 167 174 180 180 180 178 172 179 191 202 202 206 213 207 194 198 224 231 267 284 289 300 310 314 312 312 310 306 301 300 301 298 298 301
64 81 94 42 59 52 43 83 136 57 26 82 114 139 122 86 139 153 154 161 163 167 167 170 171 181 188 184 179 179 188 194 212 230 259 283 274 276 307 314 309 311 312 314 313 307 306 302 302 304 304 301 304 307
81 53 92 68 68 46 14 30 59 87 114 108 106 113 102 104 130 138 146 154 163 170 170 170 172 175 180 183 189 202 220 230 234 253 284 301 293 304 315 321 332 327 319 320 320 312 309 314 315 315 312 308 306 306
97 93 81 71 79 103 102 93 97 101 95 110 127 118 112 110 114 126 146 157 173 182 183 180 178 173 182 187 183 190 205 224 255 276 288 296 304 312 318 327 328 326 322 320 318 314 315 316 312 310 310 310 310 310
53 91 124 106 132 148 102 63 71 82 91 101 102 117 115 96 92 144 148 146 157 166 167 158 162 167 167 164 178 202 228 237 257 274 293 305 313 323 329 329 329 327 324 324 325 324 320 317 316 316 316 317 317 318
98 103 108 102 127 175 181 140 109 97 96 130 134 114 112 119 140 159 174 171 160 156 166 165 169 173 173 175 177 179 235 275 289 309 341 350 350 346 335 329 327 327 326 327 326 325 323 322 321 322 322 322 322 321
Height
1408 1411 1414 1417 1419 1421 1423 1424 1426 1428 1430 1432 1434 1437 1439 1442 1445 1447 1448 1451 1455 1455 1452 1453 1452 1452 1451 1451 1452 1447 1444 1441 1436 1435 1431 1427 1432 1422 1420 1416 1418 1420 1425 1430 1428 1426 1426 1407 1400 1399 1401 1400 1401 1396
1401 1404 1407 1410 1412 1414 1416 1418 1420 1422 1424 1426 1428 1430 1432 1435 1439 1442 1443 1446 1450 1453 1449 1447 1446 1445 1446 1447 1450 1448 1448 1447 1445 1437 1435 1433 1433 1433 1423 1424 1416 1427 1419 1418 1416 1416 1416 1413 1409 1401 1402 1399 1407 1404
1395 1398 1400 1403 1405 1407 1409 1410 1413 1415 1417 1418 1420 1422 1425 1428 1431 1434 1436 1440 1447 1449 1447 1443 1438 1439 1441 1442 1445 1448 1444 1445 1445 1443 1440 1436 1434 1430 1432 1423 1416 1413 1412 1412 1412 1414 1416 1416 1413 1409 1409 1409 1411 1413
1388 1391 1393 1396 1398 1399 1401 1404 1406 1407 1409 1410 1411 1413 1415 1418 1421 1426 1427 1432 1439 1445 1444 1436 1434 1433 1434 1434 1436 1439 1441 1442 1442 1441 1439 1437 1435 1430 1427 1422 1419 1418 1415 1417 1414 1415 1416 1418 1418 1414 1415 1414 1417 1419
1381 1384 1386 1388 1390 1392 1395 1396 1398 1399 1401 1402 1402 1402 1405 1407 1410 1416 1420 1425 1431 1440 1439 1435 1433 1430 1430 1431 1432 1435 1437 1440 1441 1441 1439 1436 1432 1430 1425 1421 1422 1423 1424 1419 1416 1420 1417 1421 1421 1421 1418 1420 1423 1426
1374 1377 1380 1381 1383 1385 1387 1389 1391 1392 1393 1394 1396 1396 1397 1399 1401 1409 1419 1424 1429 1436 1440 1438 1431 1426 1427 1427 1431 1432 1434 1437 1439 1439 1437 1433 1430 1429 1421 1421 1429 1427 1424 1421 1423 1422 1422 1424 1423 1425 1423 1424 1424 1425
1367 1369 1372 1374 1376 1378 1380 1383 1384 1386 1387 1389 1391 1392 1392 1394 1399 1408 1414 1416 1424 1435 1439 1436 1429 1425 1426 1427 1427 1428 1431 1434 1436 1438 1436 1431 1427 1428 1424 1424 1431 1430 1427 1427 1427 1427 1428 1428 1428 1428 1428 1430 1430 1430
1359 1361 1364 1367 1369 1371 1374 1377 1379 1381 1382 1383 1387 1390 1394 1399 1406 1411 1412 1414 1423 1432 1435 1435 1428 1425 1424 1423 1424 1426 1428 1432 1432 1433 1432 1429 1425 1424 1429 1433 1433 1433 1432 1432 1430 1429 1429 1431 1432 1430 1431 1433 1432 1430
1350 1353 1356 1359 1362 1365 1368 1372 1375 1375 1380 1384 1388 1393 1398 1406 1410 1413 1415 1420 1426 1432 1429 1428 1427 1429 1420 1419 1421 1424 1426 1430 1429 1429 1427 1428 1428 1435 1436 1437 1438 1436 1435 1436 1435 1434 1433 1433 1434 1434 1434 1433 1433 1435
1342 1345 1347 1350 1353 1358 1364 1369 1372 1375 1380 1384 1392 1399 1407 1410 1414 1416 1424 1426 1430 1427 1424 1419 1416 1417 1420 1417 1417 1420 1422 1423 1421 1421 1422 1425 1438 1440 1439 1439 1439 1438 1437 1436 1435 1435 1435 1435 1435 1436 1437 1437 1437 1437
1332 1335 1339 1343 1349 1354 1360 1364 1369 1376 1382 1389 1394 1400 1406 1412 1416 1418 1420 1421 1422 1420 1416 1413 1412 1412 1414 1412 1409 1412 1414 1414 1416 1417 1417 1424 1433 1439 1440 1439 1438 1438 1437 1436 1436 1435 1435 1436 1437 1437 1437 1438 1439 1440
1324 1329 1335 1340 1346 1352 1356 1362 1369 1375 1384 1389 1391 1401 1409 1413 1415 1417 1415 1416 1415 1411 1408 1407 1407 1409 1409 1410 1408 1410 1410 1413 1409 1414 1417 1431 1440 1440 1440 1440 1439 1439 1438 1437 1437 1436 1437 1437 1437 1438 1439 1440 1441 1442
1319 1325 1332 1337 1343 1350 1357 1365 1373 1381 1386 1391 1397 1402 1405 1409 1409 1408 1408 1407 1406 1404 1403 1403 1406 1406 1408 1408 1408 1409 1408 1416 1411 1420 1430 1436 1439 1441 1442 1441 1439 1439 1439 1439 1439 1438 1439 1440 1441 1441 1442 1443 1444 1446
1314 1322 1330 1337 1344 1351 1361 1369 1377 1383 1386 1389 1393 1398 1400 1403 1404 1404 1404 1402 1402 1401 1401 1403 1406 1407 1408 1409 1409 1409 1414 1413 1419 1432 1432 1438 1439 1441 1442 1441 1441 1441 1441 1441 1442 1442 1443 1444 1445 1446 1447 1448 1450 1450
1311 1319 1329 1339 1347 1356 1366 1376 1380 1384 1385 1389 1391 1404 1402 1399 1400 1400 1401 1402 1402 1402 1403 1405 1407 1408 1410 1411 1411 1411 1415 1429 1430 1434 1438 1437 1439 1440 1441 1442 1443 1443 1444 1444 1445 1446 1448 1449 1450 1450 1451 1452 1453 1453
1316 1326 1334 1342 1353 1363 1371 1378 1382 1386 1389 1392 1396 1399 1399 1400 1401 1401 1401 1402 1402 1403 1404 1404 1408 1413 1412 1416 1415 1427 1423 1430 1437 1435 1436 1438 1440 1442 1443 1445 1446 1447 1448 1449 1450 1451 1452 1453 1454 1454 1455 1456 1456 1456
1325 1332 1342 1352 1360 1368 1376 1380 1383 1386 1391 1396 1401 1401 1401 1402 1403 1403 1403 1403 1403 1404 1407 1407 1417 1411 1416 1424 1427 1431 1437 1435 1432 1435 1438 1440 1442 1444 1445 1447 1448 1450 1451 1452 1453 1454 1455 1456 1457 1457 1457 1457 1458 1458
1336 1344 1351 1358 1364 1372 1378 1383 1387 1393 1398 1402 1403 1404 1404 1404 1405 1405 1404 1404 1405 1406 1408 1413 1414 1422 1433 1429 1434 1432 1432 1433 1436 1438 1441 1443 1445 1447 1448 1449 1451 1453 1454 1455 1456 1457 1458 1458 1459 1459 1459 1459 1459 1459
1346 1353 1361 1366 1370 1376 1382 1390 1392 1397 1402 1403 1405 1406 1407 1408 1409 1408 1407 1407 1407 1407 1410 1414 1421 1428 1430 1427 1427 1429 1432 1434 1437 1441 1443 1446 1447 1449 1451 1452 1454 1455 1457 1457 1458 1459 1459 1460 1460 1460 1459 1459 1459 1458
1357 1362 1366 1370 1374 1377 1386 1393 1395 1398 1402 1405 1406 1408 1409 1410 1411 1410 1410 1409 1409 1411 1416 1423 1427 1426 1425 1425 1427 1430 1433 1436 1438 1442 1446 1448 1450 1452 1453 1455 1456 1457 1458 1459 1459 1460 1460 1460 1459 1459 1458 1458 1458 1457
1362 1366 1371 1373 1375 1381 1389 1394 1397 1401 1404 1406 1409 1410 1413 1413 1413 1413 1413 1413 1414 1421 1426 1427 1428 1427 1428 1430 1432 1434 1437 1440 1442 1444 1446 1449 1452 1453 1455 1456 1457 1458 1459 1459 1460 1460 1460 1459 1459 1458 1457 1456 1456 1455
1363 1367 1369 1372 1378 1385 1391 1394 1397 1401 1405 1407 1409 1411 1413 1415 1416 1417 1417 1418 1424 1426 1427 1428 1429 1430 1432 1434 1436 1439 1441 1443 1445 1447 1449 1451 1452 1454 1456 1457 1458 1459 1459 1459 1459 1459 1458 1457 1457 1456 1456 1455 1455 1454
1368 1371 1373 1377 1381 1388 1398 1397 1398 1401 1406 1408 1409 1412 1415 1416 1418 1419 1422 1425 1428 1429 1429 1431 1432 1434 1435 1438 1440 1442 1445 1446 1447 1449 1451 1453 1454 1456 1457 1457 1458 1458 1458 1458 1458 1457 1456 1456 1455 1455 1455 1455 1454 1454
1369 1371 1375 1378 1382 1391 1395 1395 1397 1401 1405 1408 1410 1414 1415 1416 1419 1421 1427 1428 1430 1431 1432 1434 1436 1437 1440 1442 1443 1445 1447 1449 1450 1451 1453 1454 1455 1456 1456 1457 1457 1457 1457 1457 1456 1456 1455 1455 1454 1454 1453 1453 1452 1452
1372 1379 1380 1381 1384 1388 1393 1395 1397 1401 1407 1409 1413 1416 1414 1416 1422 1427 1427 1428 1429 1432 1434 1436 1438 1440 1441 1443 1446 1447 1449 1451 1451 1452 1454 1455 1455 1456 1457 1457 1457 1456 1456 1455 1455 1455 1454 1453 1453 1452 1452 1451 1450 1449
1379 1382 1383 1382 1384 1386 1390 1398 1400 1403 1405 1410 1411 1410 1412 1416 1425 1428 1423 1424 1427 1430 1433 1436 1438 1441 1443 1445 1446 1448 1450 1452 1453 1454 1454 1455 1455 1456 1456 1456 1456 1456 1455 1454 1454 1453 1452 1451 1451 1450 1449 1448 1447 1447
1383 1385 1384 1385 1385 1386 1390 1393 1395 1397 1406 1409 1408 1411 1416 1428 1430 1423 1423 1425 1428 1432 1436 1439 1441 1443 1444 1446 1448 1450 1451 1452 1453 1453 1453 1453 1454 1454 1454 1455 1454 1454 1453 1452 1451 1450 1449 1448 1447 1446 1446 1445 1444 1443
1384 1385 1386 1389 1389 1390 1395 1399 1403 1406 1406 1405 1406 1418 1422 1422 1423 1422 1423 1427 1430 1433 1437 1440 1443 1445 1446 1448 1449 1450 1451 1452 1452 1453 1453 1454 1453 1453 1453 1453 1452 1451 1450 1449 1448 1448 1447 1446 1444 1444 1443 1442 1441 1440
1386 1387 1388 1393 1394 1398 1402 1405 1406 1406 1406 1406 1411 1417 1418 1420 1421 1421 1425 1428 1432 1435 1437 1440 1442 1445 1446 1447 1448 1450 1451 1452 1452 1453 1453 1453 1453 1453 1452 1451 1450 1449 1449 1448 1447 1446 1445 1444 1443 1442 1441 1440 1439 1438
1389 1389 1392 1397 1402 1408 1408 1407 1406 1406 1406 1407 1409 1414 1418 1421 1424 1427 1430 1432 1435 1438 1440 1442 1443 1445 1446 1448 1448 1450 1450 1451 1451 1452 1452 1452 1451 1451 1450 1449 1449 1448 1447 1446 1445 1445 1444 1443 1441 1440 1439 1438 1436 1435
1389 1391 1395 1401 1408 1410 1410 1410 1410 1409 1409 1411 1413 1415 1420 1425 1429 1432 1433 1435 1438 1439 1441 1442 1443 1445 1447 1448 1448 1449 1450 1451 1451 1450 1450 1450 1450 1449 1449 1448 1447 1447 1446 1445 1445 1444 1443 1441 1440 1438 1437 1435 1434 1432
1391 1392 1395 1403 1410 1412 1412 1413 1415 1417 1419 1420 1422 1423 1426 1427 1431 1433 1435 1437 1438 1440 1442 1443 1445 1446 1446 1447 1448 1449 1449 1449 1450 1450 1449 1449 1449 1448 1448 1448 1447 1446 1446 1445 1444 1442 1441 1440 1438 1436 1435 1433 1431 1428
1395 1395 1396 1401 1407 1410 1412 1413 1417 1422 1424 1426 1426 1427 1427 1429 1431 1434 1435 1437 1440 1441 1442 1443 1444 1445 1446 1447 1448 1448 1448 1448 1448 1448 1448 1448 1448 1448 1448 1447 1447 1446 1445 1444 1442 1441 1439 1438 1436 1434 1432 1430 1427 1425